Weather History for Fort Smith, AR

Change the Weather History Date:

Thursday, July 10, 2014

  Actual Average Record
Temperature  
Mean Temperature 78 °F 82 °F  
Max Temperature 84 °F 93 °F 108 °F (2011)
Min Temperature 71 °F 72 °F 58 °F (1961)
Cooling Degree Days 13 17  
Month to date cooling degree days 152 166  
Year to date cooling degree days 868 795  
Since 1 June cooling degree days 590 551  
Growing Degree Days 28 (Base 50)    
Moisture  
Dew Point 70 °F    
Average Humidity 84    
Maximum Humidity 93    
Minimum Humidity 74    
Precipitation  
Precipitation 0.48 in 0.11 in 2.22 in (1905)
Month to date precipitation 0.97 1.16  
Year to date precipitation 20.16 24.63  
Sea Level Pressure  
Sea Level Pressure 30.04 in    
Wind  
Wind Speed 7 mph (ENE)    
Max Wind Speed 30 mph    
Max Gust Speed 41 mph    
Visibility 9 miles    
Events Rain , Thunderstorm    
T = Trace of Precipitation, MM = Missing Value Source: NWS Daily Summary

Daily Weather History Graph

Daily Weather History Graph

Search for Another Location

Airport:

Trip Planner

Search our weather history database for the weather conditions in past years. The results will help you decide how hot, cold, wet, or windy it might be!

Date:

Astronomy

Jul. 10, 2014 Rise Set
Actual Time 6:10 AM CDT 8:34 PM CDT
Civil Twilight 5:41 AM CDT 9:03 PM CDT
Nautical Twilight 5:05 AM CDT 9:40 PM CDT
Astronomical Twilight 4:25 AM CDT 10:19 PM CDT
Moon 6:50 PM CDT (7/10) 4:20 AM CDT (7/10)
Length of Visible Light 15h 22m
Length of Day
14h 23m
Waxing Gibbous, 95% of the Moon is Illuminated
Jul 10
Waxing Gibbous
Jul 12
Full
Jul 18
Last Quarter
Jul 26
New
Aug 3
First Quarter

Hourly Weather History & Observations

Time (CDT) Temp. Heat Index Dew Point Humidity Pressure Visibility Wind Dir Wind Speed Gust Speed Precip Events Conditions
12:53 AM 73.9 °F - 69.1 °F 85% 30.02 in 10.0 mi ENE 4.6 mph - N/A   Clear
1:53 AM 73.9 °F - 71.1 °F 91% 30.01 in 10.0 mi ENE 3.5 mph - N/A   Clear
2:53 AM 73.4 °F - 71.6 °F 94% 30.01 in 10.0 mi ENE 3.5 mph - N/A   Clear
3:53 AM 73.0 °F - 69.1 °F 87% 29.99 in 10.0 mi ESE 4.6 mph - N/A   Clear
4:53 AM 71.6 °F - 68.0 °F 88% 30.00 in 10.0 mi ENE 5.8 mph - N/A   Clear
5:53 AM 72.0 °F - 70.0 °F 93% 30.00 in 10.0 mi ENE 8.1 mph - N/A   Mostly Cloudy
6:53 AM 73.0 °F - 71.1 °F 93% 30.01 in 8.0 mi ENE 5.8 mph - N/A   Mostly Cloudy
7:53 AM 73.4 °F - 71.6 °F 94% 30.05 in 10.0 mi ENE 8.1 mph - N/A   Mostly Cloudy
8:53 AM 77.0 °F - 72.0 °F 84% 30.04 in 10.0 mi ESE 6.9 mph - N/A   Scattered Clouds
9:53 AM 81.0 °F 85.8 °F 73.0 °F 77% 30.03 in 10.0 mi East 8.1 mph - N/A   Partly Cloudy
10:53 AM 82.9 °F 88.8 °F 73.0 °F 72% 30.04 in 10.0 mi Variable 4.6 mph - N/A   Partly Cloudy
11:53 AM 81.0 °F 86.2 °F 73.9 °F 79% 30.06 in 8.0 mi NW 13.8 mph - 0.00 in Rain Light Rain
11:59 AM 78.1 °F - 72.0 °F 81% 30.08 in 4.0 mi NW 25.3 mph 41.4 mph 0.04 in Rain , Thunderstorm Light Thunderstorms and Rain
12:08 PM 72.0 °F - 68.0 °F 87% 30.10 in 1.8 mi NNW 23.0 mph 40.3 mph 0.06 in Rain , Thunderstorm Light Thunderstorms and Rain
12:28 PM 71.1 °F - 69.1 °F 93% 30.05 in 3.0 mi NE 10.4 mph - 0.26 in Rain , Thunderstorm Light Thunderstorms and Rain
12:44 PM 72.0 °F - 69.1 °F 91% 30.06 in 10.0 mi ENE 13.8 mph - 0.27 in Rain Light Rain
12:53 PM 72.0 °F - 69.1 °F 91% 30.06 in 10.0 mi East 12.7 mph - 0.27 in   Partly Cloudy
1:53 PM 75.0 °F - 69.1 °F 82% 30.04 in 10.0 mi East 8.1 mph - 0.00 in   Scattered Clouds
2:53 PM 79.0 °F - 69.1 °F 72% 30.01 in 10.0 mi East 8.1 mph - N/A   Clear
3:53 PM 75.9 °F - 68.0 °F 76% 30.06 in 10.0 mi NNE 16.1 mph - N/A   Overcast
4:53 PM 73.9 °F - 70.0 °F 87% 30.04 in 10.0 mi ENE 10.4 mph - 0.04 in Rain Light Rain
5:53 PM 73.0 °F - 69.1 °F 87% 30.04 in 10.0 mi SE 3.5 mph - 0.01 in Rain Light Rain
6:22 PM 73.0 °F - 70.0 °F 90% 30.02 in 1.8 mi South 17.3 mph - 0.06 in Rain Heavy Rain
6:53 PM 73.0 °F - 70.0 °F 90% 30.04 in 10.0 mi NE 5.8 mph - 0.15 in Rain Light Rain
7:53 PM 72.0 °F - 69.1 °F 91% 30.03 in 10.0 mi East 4.6 mph - 0.01 in   Clear
8:53 PM 72.0 °F - 69.1 °F 91% 30.03 in 10.0 mi East 5.8 mph - N/A   Partly Cloudy
9:53 PM 71.1 °F - 69.1 °F 93% 30.06 in 10.0 mi ENE 4.6 mph - N/A   Clear
10:53 PM 71.1 °F - 69.1 °F 93% 30.05 in 10.0 mi East 8.1 mph - N/A   Partly Cloudy
11:22 PM 72.0 °F - 69.1 °F 91% 30.07 in 10.0 mi East 8.1 mph - N/A   Mostly Cloudy
11:39 PM 71.1 °F - 69.1 °F 93% 30.08 in 10.0 mi ENE 8.1 mph - N/A   Overcast
11:53 PM 72.0 °F - 69.1 °F 91% 30.06 in 10.0 mi East 8.1 mph - N/A   Overcast